Regional Weather Roundup
Issued by NWS

Home | Current Version | Previous Version | Text Only | Print | Product List | Glossary On
Versions: 1 2 3 4 5 6 7 8 9 10 11 12 13 14 15 16 17 18 19 20 21 22 23 24 25 26 27 28 29 30 31 32 33 34 35 36 37 38 39 40 41 42 43 44 45 46 47 48 49 50
000
ASUS43 KMKX 231020
RWRWI

WISCONSIN REGIONAL WEATHER ROUNDUP
NATIONAL WEATHER SERVICE MILWAUKEE/SULLIVAN WI
500 AM CDT MON APR 23 2018

NOTE: "FAIR" INDICATES FEW OR NO CLOUDS BELOW 12,000 FEET WITH NO
SIGNIFICANT WEATHER AND/OR OBSTRUCTIONS TO VISIBILITY.

WIZ001-002-006>008-014>016-023>028-231100-
NORTHWEST WISCONSIN

CITY           SKY/WX    TMP DP  RH WIND       PRES   REMARKS
SUPERIOR ARPT  FAIR      28  26  89 CALM      30.23S
ASHLAND        FAIR      39  23  52 CALM      30.24S
HAYWARD        FAIR      28  25  88 N3        30.25R
SIREN          FAIR      32  28  84 CALM      30.25R
CUMBERLAND     FAIR      32  25  74 CALM      30.25S
RICE LAKE      FAIR      34  26  72 CALM      30.28R
CHETEK         FAIR      31  27  86 CALM      30.27R
LADYSMITH      FAIR      32  27  83 CALM      30.28S
EAU CLAIRE     FAIR      33  26  75 CALM      30.26R
MENOMONIE      FAIR      35  32  90 CALM      30.26S
NEW RICHMOND   FAIR      34  31  89 CALM      30.25S
OSCEOLA        FAIR      33  29  86 CALM      30.28S
$$

WIZ003>005-009-010-017-018-231100-
NORTH CENTRAL WISCONSIN

CITY           SKY/WX    TMP DP  RH WIND       PRES   REMARKS
MANITOWISH WTR FAIR      27  26  94 CALM      30.26R
ARBOR VITAE    FAIR      31  23  73 CALM      30.26S
WOODRUFF       FAIR      31  23  73 CALM      30.26S
RHINELANDER    FAIR      28  21  75 CALM      30.27S
EAGLE RIVER    FAIR      26  20  81 CALM      30.27S
LAND O LAKES   FAIR      25  22  87 CALM      30.29R
PHILLIPS       FAIR      28  24  86 CALM      30.26S
TOMAHAWK       FAIR      24  20  84 CALM      30.28S
MEDFORD        FAIR      30  25  81 CALM      30.26S
MERRILL          N/A     27  22  83 CALM      30.28S
$$

WIZ029-030-035-036-043>047-231100-
CENTRAL WISCONSIN

CITY           SKY/WX    TMP DP  RH WIND       PRES   REMARKS
WAUSAU         FAIR      30  24  78 CALM      30.26S
MOSINEE        FAIR      36  27  69 CALM      30.28S
MARSHFIELD     FAIR      37  24  59 CALM      30.26R
STEVENS POINT  FAIR      27  24  88 CALM      30.28S
WAUPACA        FAIR      31  27  87 CALM      30.28F
WAUTOMA        FAIR      27  25  92 CALM      30.28F
WISC RAPIDS    FAIR      33  24  69 CALM      30.28S
CAMP DOUGLAS   FAIR      26  25  98 CALM      30.26F
$$

WIZ011>013-019>022-031-037>040-048>050-231100-
NORTHEAST WISCONSIN

CITY           SKY/WX    TMP DP  RH WIND       PRES   REMARKS
ANTIGO         FAIR      31  27  85 CALM      30.28S
SHAWANO        FAIR      30  26  87 CALM      30.29S
OCONTO         FAIR      27  25  91 CALM      30.29S
STURGEON BAY   FAIR      40  18  41 E6        30.30S
GREEN BAY      FAIR      31  26  82 CALM      30.29S
MANITOWOC      FAIR      32  28  85 CALM      30.30R
APPLETON       FAIR      37  18  44 NE5       30.26F WCI  34
CLINTONVILLE   FAIR      29  25  85 CALM      30.29S
OSHKOSH        FAIR      37  28  70 N3        30.27S
$$

WIZ032>034-041-042-053>061-231100-
SOUTHWEST WISCONSIN

CITY           SKY/WX    TMP DP  RH WIND       PRES   REMARKS
LA CROSSE      FAIR      38  29  70 CALM      30.26S
SPARTA         FAIR      27  24  88 CALM      30.27S
VIROQUA        FAIR      39  29  67 E7        30.24F WCI  34
BOSCOBEL       FAIR      33  30  88 N3        30.26R
PRAIRIE DU CHI FAIR      39  32  75 CALM      30.25S
PLATTEVILLE    FAIR      42  29  60 E10       30.22F
$$

WIZ056-057-062-063-064-067-068-231100-
SOUTH CENTRAL WISCONSIN

CITY           SKY/WX    TMP DP  RH WIND       PRES   REMARKS
REEDSBURG      FAIR      33  32  96 CALM      30.26S
BARABOO/DELLS  FAIR      32  27  83 CALM      30.26S
LONE ROCK      FAIR      31  29  92 CALM      30.26S
MINERAL POINT  FAIR      45  27  49 E9        30.23S
MADISON        FAIR      33  26  75 N3        30.25S
MIDDLETON      FAIR      33  30  88 CALM      30.26R
WATERTOWN      FAIR      37  25  62 CALM      30.24F
MONROE         FAIR      41  25  52 NE7       30.23S
JANESVILLE     FAIR      37  28  70 NE3       30.24S
$$

WIZ051-052-058>065-066-070>072-231100-
SOUTHEAST WISCONSIN

CITY           SKY/WX    TMP DP  RH WIND       PRES   REMARKS
MILWAUKEE      FAIR      40  31  70 CALM      30.26S
WAUKESHA       FAIR      36  23  60 CALM      30.27S
MILWAUKEE/TIMM FAIR      36  25  64 NE5       30.26F WCI  32
RACINE         FAIR      37  32  82 N6        30.27R WCI  32
BURLINGTON     FAIR      34  28  79 CALM      30.25R
KENOSHA        FAIR      39  29  67 N3        30.25R
FOND DU LAC    FAIR      36  26  67 NE3       30.27S
SHEBOYGAN      FAIR      33  28  81 NE3       30.28S
WEST BEND      FAIR      30  28  93 CALM      30.27S
JUNEAU         FAIR      40  21  46 E3        30.27S
$$

LSZ147-162-231100-
LAKE SUPERIOR

STATION/POSITION TIME  TEMP    WIND        PRES    WAVE
                       AIR SEA DIR/SP/G            HT/PER
                 (UTC) (F)     (DEG/KT/KT) (MB)    (FT/S)
DEVILS ISLAND    1000   43     210/  9/ 10 1023.9F
SAXON HARBOR     0930   44     190/  7/ 10 1023.0S
$$

LMZ867-665-643>646-231100-
LAKE MICHIGAN

STATION/POSITION TIME  TEMP    WIND        PRES    WAVE
                       AIR SEA DIR/SP/G            HT/PER
                 (UTC) (F)     (DEG/KT/KT) (MB)    (FT/S)
NORTHPORT PIER   0940   33                 1025.7S
KEWAUNEE LAKESHO 0954   30     280/  1/  3 1025.1R
SHEBOYGAN LAKESH 1000   41     360/  5/  6 1025.9R
PORT WASHINGTON  0940   38     310/  2/  3 1026.1S
MILWAUKEE LAKESH 1000   41      20/  8/  9   N/A
KENOSHA   LAKESH 1000   41                 1024.4
$$

TC  - TEMPERATURE IN CELSIUS
VSB - VISIBILITY IN STATUTE MILES
WCI - WIND CHILL INDEX
HX  - HEAT INDEX





USA.gov is the U.S. government's official web portal to all federal, state and local government web resources and services.